Cloud_Cover
0 0 2 5 92 1 0 8 98 93 5 4 95 63 100 26 32 100 54 90 95 53 16 93 98 87 100 96 100 97 100 100 100 100 100 100 43 19 59 43 97 99 66 93
0 0 0 5 0 0 16 5 62 99 5 5 5 9 18 34 5 20 100 100 100 100 16 70 81 69 75 100 100 100 100 14 53 90 90 100 100 73 84 65 41 81 86 39
0 3 0 0 1 5 71 92 95 28 30 6 8 43 70 20 45 0 4 43 100 100 61 31 79 100 90 66 95 98 64 7 11 66 11 100 98 91 66 100 100 93 99 100
0 0 0 0 3 5 89 83 28 65 89 100 100 100 100 91 3 5 31 59 87 100 100 100 100 50 98 69 88 97 93 33 9 5 16 99 53 20 46 100 99 86 52 57
0 0 0 0 4 1 55 38 8 5 4 90 82 61 100 96 94 8 5 96 55 99 100 100 100 100 100 76 100 66 100 81 6 5 52 36 39 40 13 83 100 100 100 67
0 0 0 0 4 0 1 19 100 68 56 13 57 98 100 78 30 47 5 5 87 19 100 95 100 100 100 100 65 54 72 69 6 5 5 7 30 68 100 8 31 100 100 100
0 0 0 0 0 0 0 12 97 100 99 100 44 96 47 80 25 28 20 5 95 100 100 98 96 100 100 79 100 100 100 10 5 10 7 14 9 5 10 15 7 100 100 100
0 0 0 0 0 48 94 61 100 33 100 100 100 99 33 6 13 88 98 41 5 94 100 100 100 100 100 100 100 100 69 51 31 12 10 31 26 92 43 5 33 48 100 100
10 12 6 6 2 5 37 39 66 100 100 57 82 25 40 97 38 56 100 100 30 6 32 100 100 100 100 100 100 100 14 8 66 68 31 35 32 5 5 92 8 96 100 100
60 22 45 5 5 5 5 42 86 41 24 68 31 100 31 100 95 45 32 100 100 50 89 83 100 96 99 90 82 100 100 86 44 28 17 28 37 5 5 99 8 5 13 86
80 35 78 5 5 17 28 0 0 29 92 100 96 97 100 85 28 79 78 100 45 15 98 92 100 100 100 100 91 100 100 100 84 5 14 45 5 5 21 95 67 100 100 97
100 100 100 47 74 10 6 80 51 22 2 1 11 6 100 86 66 55 100 97 100 98 9 99 100 97 100 100 100 100 100 98 98 100 97 44 17 5 14 45 100 90 66 43
100 100 100 100 100 81 5 5 98 100 100 100 92 100 59 7 2 86 100 96 81 100 100 100 88 100 98 100 100 100 100 100 100 100 94 100 100 100 95 27 69 99 100 100
14 100 100 100 100 86 100 100 44 100 100 100 100 100 12 30 32 33 63 24 16 26 100 94 98 100 98 100 100 100 95 100 100 100 85 55 89 100 95 56 56 69 97 100
64 97 98 100 100 100 100 100 100 96 14 78 100 100 96 51 69 100 61 48 76 3 100 100 100 68 68 100 100 100 100 100 80 20 5 22 97 74 100 100 29 26 11 32
100 88 100 100 100 100 100 100 100 98 98 67 9 100 96 100 42 0 1 74 100 40 1 100 100 100 100 55 100 100 100 100 100 89 77 71 100 75 30 1 0 3 5 5
100 100 92 100 100 100 85 100 100 100 100 90 69 87 35 56 5 0 0 0 21 95 97 26 20 94 100 100 100 100 100 100 100 100 100 95 38 20 6 5 5 5 10 17
5 30 96 100 100 63 100 100 100 82 100 100 100 5 72 83 88 32 8 5 2 0 0 0 0 0 0 56 100 100 100 100 100 100 100 100 100 97 90 100 44 36 29 86
5 5 5 5 83 100 97 100 100 100 100 100 100 57 98 91 11 1 32 100 59 33 7 0 0 0 0 0 1 33 40 100 100 100 100 100 100 100 100 100 100 99 94 74
5 6 19 14 5 64 100 100 84 86 96 99 96 99 100 31 20 0 72 42 0 26 31 0 0 0 0 0 0 0 0 8 6 32 85 90 68 54 92 100 98 100 100 73
100 71 88 100 46 42 64 98 95 100 92 10 33 56 100 96 50 28 56 95 15 2 0 0 0 0 0 0 0 1 16 36 92 74 48 18 0 0 0 6 17 62 84 100
67 100 100 84 52 96 100 66 98 71 71 9 92 88 73 60 12 10 5 20 5 0 4 5 0 5 2 0 0 4 26 22 0 0 0 0 0 0 2 30 19 30 51 97
100 92 97 100 100 100 33 12 10 6 5 78 76 100 100 79 30 33 5 5 1 0 0 0 5 5 5 0 0 6 10 0 0 0 0 0 6 32 99 100 98 32 62 58
80 96 100 100 97 100 80 47 7 5 31 74 14 98 100 56 100 100 93 5 5 1 1 0 1 5 0 0 0 0 0 0 0 0 0 0 0 25 13 0 8 52 66 80
61 89 52 34 37 100 69 50 68 54 54 93 11 41 100 100 100 100 100 100 100 100 100 8 5 2 0 0 0 0 0 0 0 0 0 0 0 0 4 0 0 3 39 79
30 11 82 62 99 35 26 77 78 79 99 100 61 12 19 100 100 100 100 100 100 83 49 24 6 2 4 0 0 0 0 0 0 0 4 6 10 33 34 8 47 78 71 75